Location: Newark
(44.3681°N, 100.3364°W)
Time: 14:34:14
(UTC+00:00)

deb Explorer IX - Pass Details

Date: 22 February 2020
Orbit: 547 x 1100 km, 38.8° (Epoch: 06 April)

Event Time Altitude Azimuth Distance (km) Brightness Sun altitude
Rises 15:44:25 0° 200° (SSW) 2,969 ? 20.5°
Reaches altitude 10° 15:49:19 10° 155° (SSE) 1,927 ? 21.2°
Maximum altitude 15:49:42 10° 150° (SSE) 1,912 ? 21.2°
Drops below altitude 10° 15:50:05 10° 145° (SE) 1,910 ? 21.3°
Sets 15:54:38 0° 99° (E) 2,732 ? 21.9°
